Jackson, KY

5:16 PM EDT on April 20, 2018 (GMT -0400)
Carroll

Weather History for KJKL - October, 2014

Change the Weather History Date:

Tuesday, October 14, 2014

  Actual Average Record
Temperature  
Mean Temperature 65 °F 58 °F  
Max Temperature 74 °F 69 °F 82 °F (2017)
Min Temperature 55 °F 48 °F 28 °F (1988)
Degree Days  
Heating Degree Days 0 7  
Month to date heating degree days 76 84  
Since 1 July heating degree days 112 136  
Cooling Degree Days 0 1  
Month to date cooling degree days 17 20  
Year to date cooling degree days 1163 1141  
Growing Degree Days 15 (Base 50)    
Moisture  
Dew Point 59 °F    
Average Humidity 77    
Maximum Humidity 100    
Minimum Humidity 53    
Precipitation  
Precipitation 0.87 in 0.10 in 0.93 in (1985)
Month to date precipitation 5.93 1.40  
Year to date precipitation 46.58 38.41  
Snow  
Snow 0.00 in 0.00 in - ()
Month to date snowfall 0.0 0.0  
Since 1 July snowfall 0.0 0.0  
Since 1 September snowfall 0.0 0.0  
Snow Depth 0.00 in    
Sea Level Pressure  
Sea Level Pressure 29.73 in    
Wind  
Wind Speed 6 mph (South)    
Max Wind Speed 16 mph    
Max Gust Speed 28 mph    
Visibility 5 miles    
Events Fog , Rain    
T = Trace of Precipitation, MM = Missing Value Source: NWS Daily Summary

Daily Weather History Graph

Daily Weather History Graph

Search for Another Location

Airport or City:

Astronomy

Oct. 14, 2014 Rise Set
Actual Time 7:40 AM EDT 6:57 PM EDT
Civil Twilight 7:14 AM EDT 7:23 PM EDT
Nautical Twilight 6:43 AM EDT 7:54 PM EDT
Astronomical Twilight 6:13 AM EDT 8:24 PM EDT
Moon No Moon Rise 1:37 PM EDT (10/14)
Length of Visible Light 12h 09m
Length of Day
11h 16m
Waning Gibbous, 61% of the Moon is Illuminated
Oct 14
Waning Gibbous
Oct 15
Last Quarter
Oct 23
New
Oct 30
First Quarter
Nov 6
Full

Hourly Weather History & Observations

Time (EDT) Temp. Dew Point Humidity Pressure Visibility Wind Dir Wind Speed Gust Speed Precip Events Conditions
12:53 AM 69.1 °F 55.9 °F 63% 29.86 in 10.0 mi SE 9.2 mph - N/A   Clear
1:53 AM 70.0 °F 57.0 °F 63% 29.83 in 10.0 mi SSE 10.4 mph 19.6 mph N/A   Clear
2:53 AM 71.1 °F 55.9 °F 59% 29.81 in 10.0 mi SSE 10.4 mph 19.6 mph N/A   Partly Cloudy
3:53 AM 71.1 °F 54.0 °F 55% 29.79 in 10.0 mi Variable 6.9 mph - N/A   Clear
4:53 AM 71.6 °F 53.6 °F 53% 29.82 in 10.0 mi Variable 5.8 mph - N/A   Mostly Cloudy
5:53 AM 72.0 °F 53.1 °F 51% 29.77 in 10.0 mi Variable 5.8 mph 17.3 mph N/A   Mostly Cloudy
6:53 AM 66.0 °F 59.0 °F 78% 29.82 in 10.0 mi WNW 5.8 mph - 0.00 in Rain Light Rain
7:53 AM 63.0 °F 61.0 °F 93% 29.79 in 10.0 mi ESE 5.8 mph - 0.01 in Rain Light Rain
8:53 AM 64.0 °F 60.1 °F 87% 29.80 in 5.0 mi SSE 8.1 mph 20.7 mph 0.03 in Rain Light Rain
9:08 AM 64.0 °F 60.1 °F 87% 29.84 in 2.0 mi SSE 8.1 mph 18.4 mph 0.06 in Rain Light Rain
9:18 AM 63.0 °F 60.1 °F 90% 29.83 in 5.0 mi SSE 6.9 mph - 0.07 in Rain Light Rain
9:53 AM 64.0 °F 60.1 °F 87% 29.76 in 10.0 mi SE 12.7 mph 19.6 mph 0.12 in Rain Light Rain
10:53 AM 66.2 °F 60.8 °F 83% 29.73 in 10.0 mi SE 10.4 mph 25.3 mph N/A   Scattered Clouds
11:53 AM 71.1 °F 61.0 °F 70% 29.68 in 10.0 mi SSE 11.5 mph 23.0 mph N/A   Partly Cloudy
12:53 PM 73.0 °F 60.1 °F 64% 29.65 in 10.0 mi Variable 6.9 mph 25.3 mph 0.00 in   Partly Cloudy
1:53 PM 72.0 °F 60.1 °F 66% 29.62 in 10.0 mi Variable 6.9 mph 18.4 mph 0.00 in   Mostly Cloudy
2:53 PM 73.9 °F 60.1 °F 62% 29.59 in 10.0 mi SE 10.4 mph 19.6 mph N/A   Mostly Cloudy
3:32 PM 66.0 °F 63.0 °F 90% 29.67 in 2.0 mi WNW 11.5 mph 19.6 mph 0.02 in Rain Heavy Rain
3:45 PM 64.0 °F 62.1 °F 93% 29.70 in 1.5 mi West 9.2 mph 20.7 mph 0.07 in Rain Heavy Rain
3:50 PM 62.6 °F 62.6 °F 100% 29.70 in 1.2 mi West 10.4 mph 19.6 mph 0.09 in Rain Heavy Rain
3:53 PM 63.0 °F 61.0 °F 93% 29.67 in 1.2 mi West 6.9 mph 19.6 mph 0.11 in Rain Heavy Rain
3:59 PM 63.0 °F 61.0 °F 93% 29.70 in 1.8 mi Variable 4.6 mph - 0.02 in Rain Rain
4:02 PM 62.1 °F 60.1 °F 93% 29.69 in 3.0 mi Variable 6.9 mph - 0.03 in Rain Light Rain
4:12 PM 62.1 °F 60.1 °F 93% 29.71 in 5.0 mi Variable 3.5 mph - 0.03 in Rain Light Rain
4:20 PM 61.0 °F 59.0 °F 93% 29.71 in 1.8 mi Variable 3.5 mph - 0.05 in Rain Heavy Rain
4:28 PM 61.0 °F 60.1 °F 97% 29.71 in 1.2 mi Calm Calm - 0.09 in Rain Heavy Rain
4:36 PM 61.0 °F 60.1 °F 97% 29.71 in 2.0 mi Variable 3.5 mph - 0.12 in Rain Rain
4:44 PM 61.0 °F 59.0 °F 93% 29.71 in 3.0 mi Calm Calm - 0.13 in Rain Rain
4:53 PM 61.0 °F 60.1 °F 97% 29.67 in 2.0 mi Variable 5.8 mph - 0.16 in Rain Rain
5:08 PM 61.0 °F 59.0 °F 93% 29.70 in 2.5 mi West 3.5 mph - 0.03 in Rain Rain
5:13 PM 61.0 °F 59.0 °F 93% 29.70 in 1.8 mi Calm Calm - 0.05 in Rain Rain
5:24 PM 61.0 °F 60.1 °F 97% 29.71 in 0.8 mi Calm Calm - 0.08 in Rain Heavy Rain
5:36 PM 61.0 °F 60.1 °F 97% 29.71 in 2.0 mi Calm Calm - 0.17 in Rain Light Rain
5:39 PM 61.0 °F 60.1 °F 97% 29.71 in 3.0 mi Calm Calm - 0.18 in Rain Light Rain
5:41 PM 61.0 °F 60.1 °F 97% 29.71 in 1.8 mi Calm Calm - 0.18 in Rain Light Rain
5:43 PM 61.0 °F 60.1 °F 97% 29.71 in 1.0 mi Calm Calm - 0.18 in Rain Light Rain
5:50 PM 60.8 °F 60.8 °F 100% 29.72 in 0.5 mi Calm Calm - 0.19 in Fog , Rain Light Rain
5:53 PM 61.0 °F 60.1 °F 97% 29.69 in 1.0 mi Calm Calm - 0.19 in Rain Rain
6:22 PM 60.1 °F 59.0 °F 96% 29.73 in 1.8 mi Variable 5.8 mph - 0.16 in Rain Rain
6:27 PM 60.1 °F 59.0 °F 96% 29.74 in 2.0 mi Variable 3.5 mph - 0.17 in Rain Rain
6:38 PM 60.1 °F 57.9 °F 93% 29.75 in 3.0 mi Variable 4.6 mph - 0.20 in Rain Light Rain
6:53 PM 60.1 °F 57.9 °F 93% 29.70 in 4.0 mi Calm Calm - 0.22 in Rain Rain
7:53 PM 60.1 °F 57.9 °F 93% 29.74 in 7.0 mi Calm Calm - 0.01 in Rain Light Rain
8:53 PM 60.1 °F 57.9 °F 93% 29.75 in 10.0 mi Calm Calm - 0.01 in   Mostly Cloudy
9:53 PM 59.0 °F 57.0 °F 93% 29.77 in 10.0 mi Variable 3.5 mph - N/A   Clear
10:53 PM 57.9 °F 55.0 °F 90% 29.79 in 10.0 mi Variable 3.5 mph - N/A   Partly Cloudy
11:53 PM 57.0 °F 54.0 °F 89% 29.81 in 10.0 mi Calm Calm - N/A   Clear